Weather Roundup
Issued by NWS

Home | Current Version | Previous Version | Text Only | Print | Product List | Glossary On
Versions: 1 2 3 4 5 6 7 8 9 10 11 12 13 14 15 16 17 18 19 20 21 22 23 24 25 26 27 28 29 30 31 32 33 34 35 36 37 38 39 40 41 42 43 44 45 46 47 48 49 50
000
NZUS93 KARX 232259
HRRWXR

CURRENT HOURLY OBSERVATIONS ACROSS
MUCH OF THE UPPER MISSISSIPPI VALLEY
NATIONAL WEATHER SERVICE LA CROSSE WI
500 PM CST SUN NOV 23 2014


...SOUTHEAST MINNESOTA...


CITY           SKY/WX    TMP DP  RH WIND       PRES   REMARKS
ROCHESTER      LGT RAIN  45  44  97 NW15      29.36R VSB 3/4
ROCHESTER/MAYO CLOUDY    47  46  99 W15G24    29.35S
WINONA         CLOUDY    48  46  93 CALM      29.36S FOG
AUSTIN         DRIZZLE   41  41 100 NW13      29.36F
ALBERT LEA     CLOUDY    39  39 100 NW9G17    29.38S WCI  33
DODGE CENTER   DRIZZLE   41  41 100 NW15      29.36S
PRESTON        FOG       46  46  97 S5        29.35S VSB 1/4
OWATONNA       CLOUDY    41  37  87 NW9       29.40R
FARIBAULT      CLOUDY    41  37  87 NW7       29.40R
$$

...ELSEWHERE IN MINNESOTA...


CITY           SKY/WX    TMP DP  RH WIND       PRES   REMARKS
MINNEAPOLIS    CLOUDY    40  36  86 NW10      29.39S WCI  33
INTNL FALLS    CLOUDY    34  32  92 CALM      29.38S
DULUTH         CLOUDY    38  35  89 NW10      29.35S FOG     WCI  31
RED WING         N/A     45  45 100 NW8       29.36R VSB 1
REDWOOD FALLS  CLOUDY    39  33  79 NW14      29.46R WCI  31
MANKATO        CLOUDY    39  34  81 NW16      29.42R WCI  30
WORTHINGTON    CLOUDY    37  30  75 NW20      29.49S WCI  27
FAIRMONT       CLOUDY    39  34  81 NW21G29   29.43R WCI  29
$$

...SOUTHWEST WISCONSIN...


CITY           SKY/WX    TMP DP  RH WIND       PRES   REMARKS
LA CROSSE      LGT RAIN  49  47  93 S3        29.35F VSB 1/2
PRAIRIE DU CHI LGT RAIN  48  46  93 E7        29.35F
BOSCOBEL       LGT RAIN  50  47  89 CALM      29.36F
LONE ROCK      LGT RAIN  51  46  83 E9        29.38F
PLATTEVILLE    CLOUDY    47  47  97 E8        29.37F
FORT MC COY    DRIZZLE   49  48  98 CALM      29.38S
CAMP DOUGLAS   LGT RAIN  48  48 100 SE5       29.38S
VIROQUA        CLOUDY    47  47 100 SE10      29.36F
WIS DELLS      LGT RAIN  46  45  95 CALM      29.39F
$$

...ELSEWHERE IN WISCONSIN...


CITY           SKY/WX    TMP DP  RH WIND       PRES   REMARKS
MILWAUKEE      LGT RAIN  48  45  89 SE10      29.44F FOG
MADISON        LGT RAIN  48  46  93 SE8       29.39F FOG
GREEN BAY      LGT RAIN  45  44  97 SE8       29.42F FOG
EAU CLAIRE     NOT AVBL
BLACK RVR FLS  RAIN      50  50 100 SE3       29.36S
MEDFORD        LGT RAIN  43  43 100 SE6       29.37F VSB 1/2
WAUSAU         FOG       45  45 100 SE5       29.38F VSB 1/4
WIS RAPIDS     LGT RAIN  47  45  93 SE5       29.39F
MARSHFIELD     FOG       47  46  97 SE5       29.37F VSB 1/4
RICE LAKE      FOG       40  39  98 CALM      29.36F VSB<1/4
$$

...NORTHEAST IOWA...


CITY           SKY/WX    TMP DP  RH WIND       PRES   REMARKS
DECORAH        CLOUDY    48  48 100 SE6       29.34F
MASON CITY     CLOUDY    42  40  92 NW15      29.39S
CHARLES CITY   FOG       48  48 100 CALM      29.35S VSB 1/4
OELWEIN        FOG       48  48 100 SE7       29.34F VSB 1/2
$$

...ELSEWHERE IN IOWA...


CITY           SKY/WX    TMP DP  RH WIND       PRES   REMARKS
DES MOINES     DRIZZLE   47  43  86 NW14G23   29.37S
IOWA CITY      CLOUDY    50  32  50 CALM      29.33F FOG
FORT DODGE     CLOUDY    43  37  81 NW9G20    29.43R
$$

...NORTHERN ILLINOIS...


CITY           SKY/WX    TMP DP  RH WIND       PRES   REMARKS
CHICAGO-OHARE  LGT RAIN  50  49  96 SE9       29.41F FOG
CHICAGO-MIDWAY LGT RAIN  52  50  93 SE10      29.42F
MOLINE         LGT RAIN  52  50  93 SE7       29.32F FOG
ROCKFORD       LGT RAIN  49  47  93 SE12      29.41F FOG
PEORIA         LGT RAIN  52  48  86 SE5       29.34F FOG
$$

NOTE: "FAIR" INDICATES FEW OR NO CLOUDS BELOW 12,000 FEET WITH NO
SIGNIFICANT WEATHER AND/OR OBSTRUCTIONS TO VISIBILITY. WIND
SPEEDS ARE IN MILES-PER-HOUR.



USA.gov is the U.S. government's official web portal to all federal, state and local government web resources and services.